Change the Weather History Date:

Monday, December 31, 2012

  Actual Average Record
Temperature  
Mean Temperature 31 °F -  
Max Temperature 37 °F 37 °F 62 °F (1932)
Min Temperature 25 °F 19 °F -4 °F (1963)
Degree Days  
Heating Degree Days 34    
Moisture  
Dew Point 20 °F    
Average Humidity 60    
Maximum Humidity 67    
Minimum Humidity 52    
Precipitation  
Precipitation 0.00 in - - ()
Sea Level Pressure  
Sea Level Pressure 30.08 in    
Wind  
Wind Speed 2 mph (WSW)    
Max Wind Speed 7 mph    
Max Gust Speed 20 mph    
Visibility 10 miles    
Events      
Averages and records for this station are not official NWS values.
T = Trace of Precipitation, MM = Missing Value Source: NWS Daily Summary

Daily Weather History Graph

Daily Weather History Graph

Search for Another Location

Airport or City:

Trip Planner

Search our weather history database for the weather conditions in past years. The results will help you decide how hot, cold, wet, or windy it might be!

Date:

Astronomy

Dec. 31, 2012 Rise Set
Actual Time 7:22 AM EST 4:41 PM EST
Civil Twilight 6:51 AM EST 5:12 PM EST
Nautical Twilight 6:17 AM EST 5:46 PM EST
Astronomical Twilight 5:44 AM EST 6:20 PM EST
Moon 8:10 PM EST (12/31) 9:01 AM EST (12/31)
Length of Visible Light 10h 20m
Length of Day
9h 19m
Waning Gibbous, 90% of the Moon is Illuminated
Dec 31
Waning Gibbous
Jan 4
Last Quarter
Jan 11
New
Jan 18
First Quarter
Jan 26
Full

Hourly Weather History & Observations

Time (EST) Temp. Windchill Dew Point Humidity Pressure Visibility Wind Dir Wind Speed Gust Speed Precip Events Conditions
12:53 AM 26.1 °F - 12.0 °F 55% 30.19 in 10.0 mi Calm Calm - N/A   Clear
1:53 AM 25.0 °F - 14.0 °F 63% 30.21 in 10.0 mi Calm Calm - N/A   Overcast
3:53 AM 28.9 °F 25.2 °F 17.1 °F 61% 30.19 in 10.0 mi SSW 3.5 mph - N/A   Overcast
4:53 AM 28.9 °F 23.9 °F 19.0 °F 67% 30.19 in 10.0 mi SW 4.6 mph - N/A   Mostly Cloudy
5:53 AM 30.0 °F 25.2 °F 19.0 °F 64% 30.18 in 10.0 mi West 4.6 mph - N/A   Clear
6:53 AM 28.9 °F 22.8 °F 19.0 °F 67% 30.19 in 10.0 mi Variable 5.8 mph - N/A   Clear
7:53 AM 28.9 °F 23.9 °F 19.0 °F 67% 30.18 in 10.0 mi West 4.6 mph - N/A   Clear
8:53 AM 30.9 °F 24.3 °F 19.0 °F 61% 30.19 in 10.0 mi West 6.9 mph - N/A   Clear
9:53 AM 30.9 °F 26.2 °F 19.9 °F 64% 30.19 in 10.0 mi Variable 4.6 mph 19.6 mph N/A   Clear
10:53 AM 33.1 °F 27.7 °F 19.9 °F 59% 30.17 in 10.0 mi Variable 5.8 mph - N/A   Clear
11:53 AM 35.1 °F 31.0 °F 21.0 °F 57% 30.12 in 10.0 mi Variable 4.6 mph - N/A   Clear
12:53 PM 37.0 °F 33.3 °F 21.9 °F 54% 30.08 in 10.0 mi Variable 4.6 mph - N/A   Clear
1:53 PM 37.0 °F - 21.0 °F 52% 30.06 in 10.0 mi Calm Calm - N/A   Clear
2:53 PM 36.0 °F 33.3 °F 21.0 °F 55% 30.04 in 10.0 mi Variable 3.5 mph - N/A   Partly Cloudy
3:53 PM 36.0 °F 32.1 °F 21.9 °F 57% 30.01 in 10.0 mi Variable 4.6 mph - N/A   Overcast
4:53 PM 36.0 °F - 21.9 °F 57% 30.00 in 10.0 mi Calm Calm - N/A   Clear
5:53 PM 36.0 °F 32.1 °F 21.9 °F 57% 30.00 in 10.0 mi SSW 4.6 mph - N/A   Overcast
6:53 PM 35.6 °F - 21.2 °F 56% 29.97 in 10.0 mi Calm Calm - N/A   Unknown
7:53 PM 36.0 °F - 21.9 °F 57% 29.95 in 10.0 mi Calm Calm - N/A   Overcast
8:53 PM 36.0 °F - 21.9 °F 57% 29.94 in 10.0 mi Calm Calm - N/A   Overcast
9:53 PM 36.0 °F - 23.0 °F 59% 29.92 in 10.0 mi Calm Calm - N/A   Overcast
10:53 PM 35.1 °F - 25.0 °F 67% 29.91 in 10.0 mi Calm Calm - N/A   Overcast
11:53 PM 36.0 °F - 25.0 °F 64% 29.91 in 10.0 mi Calm Calm - N/A   Overcast